Location: Gadern
(49.5873°N, 8.8138°E)
Time: 17:31:12
(UTC+00:00)

Meteor 2-4 Rocket - Pass Details

Date: 19 May 2025
Orbit: 798 x 906 km, 81.2° (Epoch: 17 June)

Event Time Altitude Azimuth Distance (km) Brightness Sun altitude
Exits shadow 22:30:54 36° 160° (SSE) 1,337 4.2 -19.5°
Maximum altitude 22:33:07 61° 96° (E) 985 3.9 -19.6°
Drops below altitude 10° 22:38:50 10° 18° (NNE) 2,562 7.1 -19.8°
Sets 22:41:21 0° 15° (NNE) 3,518 8.1 -19.9°
